Location: Unspecified
(0.0000°N, 0.0000°E)
Time: 19:02:21
(UTC+00:00)

Transit 2A Rocket - Pass Details

Date: 27 November 2019
Orbit: 594 x 909 km, 66.7° (Epoch: 08 December)

Event Time Altitude Azimuth Distance (km) Brightness Sun altitude
Rises 05:52:05 0° 345° (NNW) 3,005 7.7 1.1°
Reaches altitude 10° 05:54:19 10° 348° (NNW) 2,138 7.0 1.6°
Maximum altitude 05:59:09 68° 71° (ENE) 797 5.5 2.7°
Drops below altitude 10° 06:04:30 10° 153° (SSE) 2,357 8.4 4.0°
Sets 06:07:03 0° 155° (SSE) 3,339 9.1 4.6°
